Погода в Кульбаках

Россия / Курская область     51°14′36″N   34°47′21″E
темп.,
°C
ветер,
м/с
пор.,
м/с
влажн.,
%
обл.,
%
осадки,
мм/ч
давл.,
гПа
погр.,
м
29 ноября, пн
пн2900:00+6юв51294100 0.0 1006283
03:00+6юв4896100 0.0 1004171
06:00+6вюв4898100 1.7 1001259
09:00+7ю4998100 1.8 1000274
12:00+9ююв61291100 0.0 998552
15:00+10юв71492100 0.4 993778
18:00+10ююв81692100 6.9 987899
21:00+11ю91690100 11.9 982883
30 ноября, вт
вт3000:00+9зюз71489100 2.9 981842
03:00+7з101587100 3.6 9851175
06:00+4зюз111575100 0.1 9891133
09:00+3юз101668100 0.1 9921521
12:00+3зюз101669100 0.1 9941479
15:00+3зюз91470100 0.2 9941464
18:00+2зюз81272100 0.1 9951264
21:000з6117618 0.1 995844
1 декабря, ср
ср100:00−1з51178100 0.0 996562
03:00−1з511815 0.0 996568
06:00−2юз487947 0.0 996391
09:00−1юз51080100 0.0 997529
12:000ююз5885100 0.4 996678
15:000юз3593100 0.9 996430
18:00−1зсз36955 0.2 999175
21:00−2зсз499312 0.2 1002417
2 декабря, чт
чт200:00−3з478428 0.0 1004320
03:00−3юз3784100 0.0 1006306
06:00−3ююз51080100 0.0 1006426
09:00−2ююз71479100 0.0 1006565
12:00+1ююз8167678 0.6 1004598
15:00+2ююз81678100 0.6 1003583
18:00+2ююз71587100 0.0 1004474
21:00+2ююз61291100 0.0 1004334
3 декабря, пт
пт300:00+1ююз41191100 0.0 1005230
03:00+1ю4119193 0.0 1006220
06:00+1ю51291100 0.0 1005263
09:00+3ю61593100 0.0 1005358
12:00+5ю71695100 0.1 1003789
15:00+7ю81585100 0.1 1001754
18:00+7ю71688100 0.0 1001677
21:00+8ююз71391100 0.3 1000718